STARLINK-34395, 64668

Orbit data source: Space-Track

STARLINK-34395, 64668 is a payload satellite owned by SpaceX/Seattle (US) in LEO that was launched on Sat, 28 Jun 2025 UTC via an FALCON 9 launch vehicle from the Air Force Eastern Test Range (AFETR). Payload-class satellites include a variety of spacecraft equipped with specific instruments for various scientific and technological missions. These include communications satellites like Starlink; space stations such as the ISS; scientific satellites like the Hubble; Earth observation satellites from companies like Planet Labs, Umbra, and HawkEye 360; GPS; miniature CubeSats for education and research; and military/defense satellites.

Loading next visibility...
Identifier
64668, 2025-139E
Orbit
LEO
Country
Flag of USUS
Related business
Manufacturer
SpaceX/Seattle
Mission
Operational Commercial Communications
Bus & Motor
STARLINK V2MO, Unknown motor
Mass
575 kg wet, ~530 kg dry
Launch date (UTC)
2025-06-28 (1 year ago)
Launch vehicle
FALCON 9
Launch site
Air Force Eastern Test Range (AFETR)
Object type
Payload
Rocket body
Debris
Shape & HBR
Box + 2 Pan, 17.7 m
Radar Cross Section
36.964 m², Large (>1 m²)

Expand to show TLE details & history
Last TLE update: 1 day ago

TLE from 1 day ago
0 STARLINK-34395
1 64668U 25139E   26170.83815045  .00018983  00000-0  57202-3 0  9998
2 64668  53.1592  11.1482 0001275  79.8674 280.2473 15.34372933 55949
Epoch: 2026-06-19T20:06Z
TLE epoch observation values (Epoch: 2026-06-19T20:06:56.198Z)
Latitude
0.00001°
Longitude
161.35266°
Altitude
463.53 km
Speed
7.636 km/s
True Right ascension
00h 44m 35s
True Declination
0° 00' 00"
Sunlit
Object was in daylight at epoch
Visualization orbit readout
Latitude
Unknown
Longitude
Unknown
Altitude
Unknown
Speed
Unknown
Apparent Right ascension
Unknown
Apparent Declination
Unknown
Sunlit
N/A
Visualization observer readout
Local Sidereal Time
10:19:51
Azimuth
Unknown
Elevation
Unknown
Doppler factor
Unknown
Orbital elements
Apogee altitude
463.913 km
Perigee altitude
462.168 km
Semi-major axis
6,841.178 km
Eccentricity
0.00013
Inclination
53.1592°
RAAN
11.1482°
Arg. of periapsis
79.8674°
True anomaly
280.23292°
Mean anomaly
280.2473°
Eccentric anomaly
280.24011°
Mean motion
3.83572 °/min
Orbital period
93.85 mins
BSTAR
0.00057202
Loading maneuver chart data...
Computing Atmospheric mass density...
Loading historical data...
Loading historical data...
Loading historical data...
Loading historical data...
Loading historical data...
Loading historical data...
Loading historical data...

Documentation

Showing up to 5 results
|